Home   Weather   Fregenal de la Sierra   Past weeks
Flag for Spain

Past Weather in Fregenal de la Sierra, Badajoz, Spain — Yesterday and Last 2 Weeks

Now
73 °F

Passing clouds.


Feels Like: 74 °F
Forecast: 88 / 68 °F
Wind: 6 mph from South

Location: Rota Airport

Current Time: Jul 10, 2020 at 12:14:17 pm

Latest Report: Jul 10, 2020 at 11:00 am


Visibility: N/A

Pressure: 29.95 "Hg

Humidity: 78%

Dew Point: 66 °F

Location of Fregenal de la SierraLocation

Past Weather in Fregenal de la Sierra — Graph

°F

Fregenal de la Sierra Temperature Yesterday

Maximum temperature yesterday: 75 °F (at 2:00 pm)
Minimum temperature yesterday: 68 °F (at 11:00 pm)
Average temperature yesterday: 72 °F

High & Low Weather Summary for the Past Weeks

 TemperatureHumidityPressure
High97 °F (Jul 7, 5:00 pm)100% (Jun 27, 7:00 am)30.09 "Hg (Jun 27, 7:00 am)
Low61 °F (Jun 27, 7:00 am)25% (Jul 7, 12:00 pm)29.83 "Hg (Jul 8, 5:00 am)
Average75 °F71%29.98 "Hg
* Reported Jun 25 11:00 am — Jul 10 11:00 am, Fregenal de la Sierra. Weather by CustomWeather, © 2020

Note: Actual official high and low records may vary slightly from our data, if they occured in-between our weather recording intervals... More about our weather records

Fregenal de la Sierra Weather History for the Previous 24 Hours

Scroll right to see more
 ConditionsComfort  
Time TempWeatherWind HumidityBarometerVisibility
11:00 am
Fri, Jul 10
73 °FPassing clouds.6 mph78%29.95 "HgN/A
10:52 am73 °FPassing clouds.6 mph78%29.95 "HgN/A
10:00 am72 °FPartly sunny.6 mph83%29.95 "HgN/A
9:00 am70 °FPartly sunny.7 mph88%29.95 "Hg6 mi
8:00 am68 °FPassing clouds.6 mph94%29.92 "Hg6 mi
7:00 am68 °FPassing clouds.3 mph94%29.92 "Hg6 mi
6:00 am68 °FPassing clouds.7 mph94%29.92 "HgN/A
5:00 am68 °FPassing clouds.5 mph94%29.95 "HgN/A
4:00 am68 °FPassing clouds.5 mph94%29.95 "HgN/A
3:00 am66 °FPassing clouds.3 mph94%29.95 "HgN/A
2:00 am68 °FClear.No wind88%29.98 "Hg10 mi
1:00 am66 °FPassing clouds.1 mph88%29.98 "HgN/A
12:00 am66 °FClear.2 mph83%29.98 "Hg10 mi
11:00 pm
Thu, Jul 9
68 °FClear.5 mph83%29.95 "Hg10 mi
10:00 pm70 °FPassing clouds.6 mph78%29.95 "HgN/A
9:00 pm72 °FPassing clouds.7 mph73%29.95 "HgN/A
8:00 pm73 °FPassing clouds.7 mph69%29.95 "HgN/A
7:00 pm75 °FPassing clouds.7 mph65%29.95 "HgN/A
6:00 pm75 °FPassing clouds.7 mph65%29.98 "HgN/A
5:00 pm75 °FPassing clouds.8 mph65%29.98 "HgN/A
4:00 pm75 °FPassing clouds.9 mph61%30.01 "HgN/A
3:00 pm75 °FPassing clouds.9 mph61%30.01 "HgN/A
2:00 pm75 °FScattered clouds.8 mph61%30.04 "HgN/A
1:00 pm73 °FPartly sunny.9 mph65%30.04 "HgN/A
12:00 pm72 °FPartly sunny.9 mph69%30.04 "HgN/A
Weather by CustomWeather, © 2020

See weather overview